EW4554 Weather Reports


time (UTC)temp
C
wind
direction
speed
KPH
gust
KPH
rain 1hr
cm
rain 24hr
cm
rain mn
cm
humidity
%
barometer
mb
20200711174528 28 255 0.0 1.6 0.00 0.00 0.00 56 1010.7
20200711173110 30 265 0.0 4.8 0.00 0.00 0.00 53 1010.7
20200711171516 31 259 0.0 3.2 0.00 0.00 0.00 52 1010.6
20200711170040 32 46 0.0 0.0 0.00 0.00 0.00 51 1010.1
20200711164526 32 247 0.0 0.0 0.00 0.00 0.00 52 1010.2
20200711163015 32 237 0.0 4.8 0.00 0.00 0.00 50 1010.0
20200711161518 32 271 0.0 8.0 0.00 0.00 0.00 50 1010.1
20200711160032 32 293 0.0 4.8 0.00 0.00 0.00 51 1010.3
20200711154520 33 246 0.0 8.0 0.00 0.00 0.00 49 1010.4
20200711153108 33 227 0.0 3.2 0.00 0.00 0.00 48 1010.3
20200711151514 33 271 1.6 11.3 0.00 0.00 0.00 51 1010.3
20200711150009 33 239 0.0 11.3 0.00 0.00 0.00 48 1010.3
20200711144523 36 263 0.0 0.0 0.00 0.00 0.00 47 1010.3
20200711143009 36 247 0.0 0.0 0.00 0.00 0.00 45 1010.2
20200711141518 37 276 0.0 0.0 0.00 0.00 0.00 44 1010.1
20200711140009 37 335 0.0 0.0 0.00 0.00 0.00 28 1010.2
20200711134503 37 344 0.0 0.0 0.00 0.00 0.00 35 1010.3
20200711133159 36 159 0.0 0.0 0.00 0.00 0.00 36 1010.6
20200711131815 36 167 0.0 0.0 0.00 0.00 0.00 32 1010.7
20200711130216 36 241 0.0 4.8 0.00 0.00 0.00 32 1010.9
20200711124613 36 159 0.0 8.0 0.00 0.00 0.00 38 1011.1
20200711123139 35 149 0.0 6.4 0.00 0.00 0.00 41 1011.2
20200711121651 35 234 0.0 0.0 0.00 0.00 0.00 44 1011.3
20200711120119 34 234 0.0 0.0 0.00 0.00 0.00 41 1011.5
20200711114713 33 82 0.0 0.0 0.00 0.00 0.00 50 1011.6
20200711113109 33 67 0.0 0.0 0.00 0.00 0.00 47 1011.7
20200711111629 33 67 0.0 0.0 0.00 0.00 0.00 53 1011.9
20200711110033 32 67 0.0 0.0 0.00 0.00 0.00 55 1012.0
20200711104530 31 339 0.0 0.0 0.00 0.00 0.00 53 1012.0
20200711103050 30 339 0.0 0.0 0.00 0.00 0.00 55 1012.1
20200711101525 30 339 0.0 0.0 0.00 0.00 0.00 56 1012.2
20200711094515 27 323 0.0 0.0 0.00 0.00 0.00 68 1012.3
20200711090215 25 265 0.0 0.0 0.00 0.00 0.00 69 1012.4
20200711084630 24 300 0.0 0.0 0.00 0.00 0.00 73 1012.5
20200711083155 23 300 0.0 0.0 0.00 0.00 0.00 75 1012.6
20200711081636 22 245 0.0 0.0 0.00 0.00 0.00 81 1012.6
20200711080042 20 244 0.0 0.0 0.00 0.00 0.00 87 1012.7
20200711074554 18 244 0.0 0.0 0.00 0.00 0.00 89 1012.8
20200711073119 17 244 0.0 0.0 0.00 0.00 0.00 91 1012.7
20200711071538 17 244 0.0 0.0 0.00 0.00 0.00 94 1012.7
20200711070031 16 244 0.0 0.0 0.00 0.00 0.00 96 1012.7
20200711064550 15 244 0.0 0.0 0.00 0.00 0.00 97 1012.7
20200711063037 14 244 0.0 0.0 0.00 0.00 0.00 96 1012.7
20200711061513 13 244 0.0 0.0 0.00 0.00 0.00 95 1012.6
20200711060012 12 244 0.0 0.0 0.00 0.00 0.00 94 1012.5
20200711054513 12 244 0.0 0.0 0.00 0.00 0.00 93 1012.5
20200711053035 12 244 0.0 0.0 0.00 0.00 0.00 93 1012.3
20200711051505 12 244 0.0 0.0 0.00 0.00 0.00 93 1012.3
20200711044649 12 244 0.0 0.0 0.00 0.00 0.00 93 1012.1
20200711043147 13 244 0.0 0.0 0.00 0.00 0.00 93 1012.0
20200711041733 13 244 0.0 0.0 0.00 0.00 0.00 93 1012.1
20200711040234 13 244 0.0 0.0 0.00 0.00 0.00 93 1012.1
20200711034646 13 244 0.0 0.0 0.00 0.00 0.00 94 1012.1
20200711033249 13 244 0.0 0.0 0.00 0.00 0.00 94 1012.0
20200711031627 12 244 0.0 0.0 0.00 0.00 0.00 92 1012.1
20200711030138 13 244 0.0 0.0 0.00 0.00 0.00 92 1012.2
20200711024653 13 244 0.0 0.0 0.00 0.00 0.00 92 1012.1
20200711023156 13 244 0.0 0.0 0.00 0.00 0.00 92 1012.0
20200711021734 13 244 0.0 0.0 0.00 0.00 0.00 92 1012.1
20200711020118 13 244 0.0 0.0 0.00 0.00 0.00 92 1012.2
20200711014615 13 244 0.0 0.0 0.00 0.00 0.00 91 1012.3
20200711013129 14 244 0.0 0.0 0.00 0.00 0.00 91 1012.4
20200711011652 14 244 0.0 0.0 0.00 0.00 0.00 90 1012.7
20200711010205 15 244 0.0 0.0 0.00 0.00 0.00 91 1012.8
20200711004612 15 244 0.0 0.0 0.00 0.00 0.00 91 1012.9
20200711003048 15 244 0.0 0.0 0.00 0.00 0.00 91 1013.1
20200711001559 15 244 0.0 0.0 0.00 0.00 0.00 90 1013.1
20200711000059 15 244 0.0 0.0 0.00 0.00 0.00 89 1013.3
20200710234542 15 244 0.0 0.0 0.00 0.00 0.00 89 1013.4
20200710233029 15 244 0.0 0.0 0.00 0.00 0.00 89 1013.6
20200710231618 16 244 0.0 0.0 0.00 0.00 0.00 89 1013.6
20200710230058 16 244 0.0 0.0 0.00 0.00 0.00 88 1013.8
20200710224525 16 244 0.0 0.0 0.00 0.00 0.00 87 1013.7
20200710223036 16 241 0.0 0.0 0.00 0.00 0.00 87 1013.9
20200710221529 16 241 0.0 0.0 0.00 0.00 0.00 86 1013.9
20200710220046 17 242 0.0 0.0 0.00 0.00 0.00 85 1014.1
20200710214534 17 254 0.0 0.0 0.00 0.00 0.00 84 1014.0
20200710213024 17 234 0.0 4.8 0.00 0.00 0.00 83 1014.0
20200710211630 17 257 0.0 0.0 0.00 0.00 0.00 82 1013.8
20200710210042 18 282 0.0 3.2 0.00 0.00 0.00 81 1013.7
20200710204539 18 299 0.0 0.0 0.00 0.00 0.00 80 1013.4
20200710203059 19 249 0.0 6.4 0.00 0.00 0.00 78 1013.3
20200710201522 20 271 0.0 6.4 0.00 0.00 0.00 77 1013.3
20200710200029 20 286 0.0 0.0 0.00 0.00 0.00 75 1013.2
20200710194544 21 299 0.0 4.8 0.00 0.00 0.00 73 1013.0
20200710193032 21 261 0.0 4.8 0.00 0.00 0.00 72 1013.0
20200710191528 22 245 0.0 0.0 0.00 0.00 0.00 70 1013.0
20200710190022 22 266 0.0 6.4 0.00 0.00 0.00 69 1012.9
20200710184529 23 235 0.0 3.2 0.00 0.00 0.00 67 1012.9
20200710183025 23 250 0.0 0.0 0.00 0.00 0.00 66 1012.9
20200710181552 24 243 0.0 4.8 0.00 0.00 0.00 65 1012.8
20200710180042 25 307 0.0 4.8 0.00 0.00 0.00 63 1012.8